Location: Asheville, NC
(35.6000°N, 82.5500°W)
Time: 21:02:45

Vanguard 2 Rocket - Pass Details

Date: 11 December 2017
Orbit: 554 x 3327 km, 32.9° (Epoch: 18 March)

Event Time Altitude Azimuth Distance (km) Brightness Sun altitude
Rises 00:51:06 0° 280° (W) 6,809 11.3 -76.1°
Enters shadow 00:51:39 - 280° (W) 6,704 11.3 -76.0°
Reaches altitude 10° 00:55:20 10° 278° (W) 5,999 - -75.6°
Maximum altitude 01:15:12 69° 201° (SSW) 3,412 - -73.1°
Exits shadow 01:31:54 12° 122° (ESE) 5,205 10.7 -70.5°
Drops below altitude 10° 01:32:34 10° 122° (ESE) 5,333 10.8 -70.4°
Sets 01:36:04 0° 120° (ESE) 6,054 11.2 -69.8°
